User: anonymous   Login
Location: Unspecified
(0.0000°N, 0.0000°E)
Time: 14:14:03
(UTC+00:00)
Language:

deb Delta 98 - Orbit

View from above orbital plane
View from above orbital plane
View from above satellite
View from above satellite

Ground track
Ground track

The orbit data is extracted from the following two-line orbital elements,

1 07184U 73086EV  24053.87516416  .00000277  00000-0  95473-3 0  9993
2 07184 102.3033 270.5743 0198908 147.1533 331.7108 13.03396185373129
Epoch (UTC): 22 February 2024 21:00:14
Eccentricity: 0.0198908
inclination: 102.3033°
perigee height: 1097 km
apogee height: 1400 km
right ascension of ascending node: 270.5743°
argument of perigee: 147.1533°
revolutions per day: 13.03396185
mean anomaly at epoch: 331.7108°
orbit number at epoch: 37312

The dashed part of the orbit path shows where the satellite is in the earth's shadow,  

DLR